Weather in Livorno

Italy     43°33′39″N   10°18′59″E
temp.,
°C
wind,
m/s
gust,
m/s
humid.,
%
clouds,
%
prec.,
mm/h
press.,
hPa
HPBL,
m
12 april, mon
mon1223:00+14sse91396100 1.6 1018703
02:00+14sse91396100 7.2 1018809
05:00+14s91397100 6.8 1016888
08:00+14ssw6894100 11.3 1016583
11:00+13sse121591100 3.9 1016821
14:00+14sse101393100 4.3 1016709
17:00+12wsw7889100 13.9 1014466
20:00+12wnw5675100 20.7 1015737
13 april, tue
tue1323:00+12wsw2379100 2.3 1015443
02:00+11se1178100 2.8 1014279
05:00+11nw2277100 0.2 1013381
08:00+10nne3384100 1.0 1015353
11:00+11ene8975100 0.9 1016869
14:00+11n4572100 1.1 1017889
17:00+10ene6666100 0.6 1018963
20:00+8ene11127888 0.6 1020429
14 april, wed
wed1423:00+8ene912785 0.0 1023452
02:00+8ene712715 0.0 1023616
05:00+8ene46685 0.0 1023272
08:00+8ene46675 0.0 1023256
11:00+11ene55534 0.0 1023878
14:00+13nne24495 0.0 10211137
17:00+12nnw75603 0.0 1020530
20:00+12n556111 0.0 1020463
15 april, thu
thu1523:00+11ene226597 0.0 1020202
02:00+11ene226599 0.1 1020162
05:00+10ene336291 0.0 1019188
08:00+10ene456394 0.0 1019246
11:00+11ene445378 0.0 1020561
14:00+13wnw224649 0.0 1019659
17:00+12nw54605 0.0 1018569
20:00+12nnw44622 0.0 1018476
16 april, fri
fri1623:00+10e58745 0.0 1019387
02:00+9ene7107460 0.0 1018354
05:00+9ene71172100 0.0 1018382
08:00+9ene91268100 0.0 1017475
11:00+12ene9958100 0.0 1017777
14:00+14ene7747100 0.0 10161440
17:00+15ne8852100 0.0 10141136
20:00+12ene111256100 0.0 1014661